Location: Veytaux
(46.4185°N, 6.9320°E)
Time: 08:17:21
(UTC+00:00)

Cosmos 1674 Rocket - Pass Details

Date: 27 May 2022
Orbit: 603 x 629 km, 82.5° (Epoch: 01 July)

Event Time Altitude Azimuth Distance (km) Brightness Sun altitude
Exits shadow 00:23:15 41° 254° (WSW) 881 4.1 -21.2°
Maximum altitude 00:23:58 46° 283° (WNW) 826 4.1 -21.2°
Drops below altitude 10° 00:28:09 10° 357° (N) 1,962 7.2 -21.0°
Sets 00:30:27 0° 4° (N) 2,869 8.4 -20.9°
